Airfield :
LOGIN :

Register | Disclaimer

   EN    FR    IT 

 










Legend :    VFR   Marginal VFR   IFR   Intensive IFR   Very Intensive IFR
Visi :
Ceiling :
>= 8 km
>= 3000ft
5 to 8 km
1000 to 3000 ft
1500m to 5 km
500 to 1000 ft
800 to 1500m
200 to 500 ft
< 800m
< 200 ft
Symbols :   Thunderstorms  Fog  Heavy snow  Heavy precipitations  Wind > 20 kt
SIGMETs :     Misc.  Thunderstorms  Icing  Turbulence  Mountain Waves  Volcanic Ashes







- Airport Elevation : 53 ft
- IATA code : LBC


EDHL - Lübeck

EXPIRED METARs :
  • 241420Z 25012KT 3000 RA BR OVC009 17/16 Q1009
  • 241350Z 24013KT 200V260 5000 -DZ BKN008 BKN012 17/16 Q1009
  • 241320Z 24012KT 5000 -DZ BKN008 BKN012 17/16 Q1009
  • 241250Z 23014KT 7000 BKN013 18/15 Q1009
  • 241220Z 24013KT 8000 BKN010 BKN014 17/16 Q1009 REDZ
  • 241150Z 23013KT 6000 DZ OVC011 17/15 Q1009

Expired Forecast.
No reported NOTAMs for that airfield.



MET'MAP, your aeronautical weather chart ! - Copyright ORBIFLY December 2007 - Disclaimer

ORBIFLY MET'MAP TEAM :

Programming & Development : Alexandra Zaïnal
Concept & Development : Baudouin d'Aumeries
Co-Development & Prog : Marc-Olivier Méhu
Technical & hardware support : Manuel Goepfert

Contact : metmap@orbifly.com




SOURCES & CREDITS :

   NOAA